Terminal Aerodrome Forecast
Issued by NWS Detroit/Pontiac, MI

Home | Current Version | Previous Version | Text Only | Print | Product List | Glossary On
Versions: 1 2 3 4 5 6 7 8 9 10 11 12 13 14 15 16 17 18 19 20 21 22 23 24 25 26 27 28 29 30 31 32
000
FTUS43 KDTX 301553 AAB
TAFDTW
TAF AMD
KDTW 301553Z 3016/0118 05011G18KT 6SM -RA OVC018
      TEMPO 3016/3019 2SM -RA BR BKN008
     FM301900 07013G20KT 2SM SHRA BR OVC008
     FM302300 06013KT 6SM -SHRA BKN012
     FM010700 10005KT 6SM -SHRA OVC008=

USA.gov is the U.S. government's official web portal to all federal, state and local government web resources and services.